Location: *
(49.9167°N, 4.0839°E)
Time: 08:06:30
(UTC+00:00)

Daily predictions for brighter satellites

Satellite Brightness Start Highest point End
(mag) Time Altitude Azimuth Time Altitude Azimuth Time Altitude Azimuth
STARLINK-1187 3.3 18:52:06 10° WNW 18:55:14 56° NNE 18:58:22 10° E
STARLINK-1240 4.2 18:51:51 10° WNW 18:55:56 55° N 19:00:01 10° E
STARLINK-1199 3.4 18:52:58 10° WNW 18:56:04 54° NNE 18:59:10 10° E
STARLINK-1191 3.4 18:53:26 10° WNW 18:56:32 54° NNE 18:59:38 10° E
Cosmos 1953 Rocket 4.1 18:52:20 10° N 18:56:35 40° ENE 19:00:49 10° SE
STARLINK-1210 3.4 18:53:53 10° WNW 18:56:58 54° NNE 19:00:04 10° E
STARLINK-1221 3.4 18:54:20 10° WNW 18:57:26 54° NNE 19:00:32 10° E
SJ-6B 3.3 18:53:34 10° SE 18:57:31 47° ENE 19:01:31 10° N
STARLINK-1219 3.3 18:54:46 10° WNW 18:57:53 55° NNE 19:00:59 10° E
Cosmos 2074 Rocket 4.1 18:51:50 10° N 18:58:08 68° ENE 19:04:24 10° SSE
STARLINK-1222 3.3 18:55:14 10° WNW 18:58:20 55° NNE 19:01:26 10° E
STARLINK-60 4.3 18:55:59 10° SSW 18:58:37 22° SE 19:01:15 10° E
STARLINK-1211 3.3 18:55:41 10° WNW 18:58:47 55° NNE 19:01:53 10° E
STARLINK-1214 3.3 18:56:08 10° WNW 18:59:14 55° NNE 19:02:20 10° E
ATLAS 5 CENTAUR R/B 2.9 18:56:36 10° SSE 18:59:32 19° ESE 19:02:40 10° ENE
Cosmos 1606 Rocket 4.1 18:55:28 10° SSE 18:59:35 39° E 19:03:46 10° NNE
STARLINK-1245 3.3 18:56:38 10° WNW 18:59:43 55° NNE 19:02:47 10° E
STARLINK-1238 3.3 18:57:02 10° WNW 19:00:08 56° NNE 19:03:15 10° E
STARLINK-1216 4.2 18:56:51 10° WNW 19:00:57 55° N 19:05:02 10° E
ADEOS Rocket 3.6 18:54:34 10° N 19:01:00 64° WNW 19:06:45 10° SSW
STARLINK-1205 3.3 18:57:59 10° WNW 19:01:04 56° NNE 19:04:09 10° E
STARLINK-1204 3.3 18:58:25 10° WNW 19:01:30 56° NNE 19:04:35 10° E
Meteor 1-16 Rocket 4.3 18:58:49 10° S 19:04:05 55° E 19:09:33 10° NNE
Cosmos 1818 3.7 18:59:00 10° SSW 19:04:18 57° ESE 19:09:39 10° NE
STARLINK-1237 4.1 19:01:51 10° WNW 19:05:56 55° N 19:10:01 10° E
Abrixas rocket 2.0 19:05:46 10° W 19:08:43 64° S 19:11:30 11° ESE
Cosmos 1943 Rocket 3.8 19:05:36 10° NW 19:10:36 35° WSW 19:15:37 10° S
STARLINK-1202 4.1 19:06:51 10° WNW 19:10:56 56° N 19:15:01 10° E
NOSS 3-4 (A) 3.9 19:05:29 10° NW 19:12:24 83° NE 19:20:03 10° SE
NOSS 3-4 (C) 3.9 19:05:36 10° NW 19:12:31 82° NE 19:20:09 10° SE
SL-4 R/B 1.8 19:15:52 10° SW 19:19:09 47° SSE 19:22:28 10° ENE
Cosmos 1300 4.3 19:17:23 11° ESE 19:19:30 17° E 19:22:01 10° NE
Cosmos 2369 Rocket 3.6 19:15:00 10° NW 19:20:15 40° WSW 19:25:28 10° S
STARLINK-1246 4.1 19:16:50 10° WNW 19:20:56 58° N 19:24:53 11° E
STARLINK-1203 4.0 19:17:28 10° WNW 19:21:38 59° N 19:25:34 11° E
MOS 1 Rocket 4.3 19:17:20 10° NNE 19:22:12 33° E 19:27:06 10° SSE
STARLINK-1201 3.2 19:19:32 10° WNW 19:22:47 67° NNE 19:25:27 14° E
NOSS 3-3 (A) 4.2 19:16:51 10° SW 19:22:49 81° NW 19:29:40 10° NE
NOSS 3-3 (C) 4.1 19:16:57 10° SW 19:22:55 82° NW 19:29:45 10° NE
MOS 1 4.4 19:17:30 10° SSE 19:23:10 83° WSW 19:28:53 10° NNW
Cosmos 1340 Rocket 3.5 19:20:15 10° SSE 19:23:56 34° E 19:27:35 10° NNE
CZ-2C R/B 4.1 19:20:13 10° NNE 19:24:44 44° E 19:29:10 10° S
Cosmos 1703 3.2 19:20:58 10° N 19:24:57 82° E 19:28:55 10° SSE
STARLINK-67 2.5 19:22:52 10° WNW 19:25:26 66° SSW 19:27:10 18° SE
Cosmos 1328 3.7 19:21:34 10° N 19:25:36 80° E 19:29:36 10° SSE
STARLINK-1224 4.0 19:21:49 10° WNW 19:25:55 59° N 19:29:39 12° E
H-2A R/B 2.4 19:21:45 10° S 19:26:55 68° WSW 19:31:59 10° NNW
CZ-2C R/B 3.2 19:24:50 10° S 19:29:41 69° WSW 19:34:26 10° NNW
STARLINK-1225 4.0 19:26:49 10° WNW 19:30:56 60° N 19:34:27 14° E
Cosmos 1437 4.1 19:28:06 10° NNW 19:30:57 37° W 19:33:46 10° SSW
STARLINK-1230 3.9 19:31:49 10° WNW 19:35:56 61° N 19:39:14 15° E
STARLINK-52 4.3 19:34:45 10° S 19:37:10 20° SE 19:37:29 20° SE
Cosmos 1908 3.1 19:33:42 10° S 19:37:33 75° E 19:41:27 10° NNE
SL-08 RB Rocket 3.8 19:33:06 10° SSE 19:37:40 83° WSW 19:42:19 10° NNW
STARLINK-1243 3.9 19:36:47 10° WNW 19:40:55 63° NNE 19:44:01 17° E
Resurs 1-3 3.6 19:37:21 10° SSE 19:41:43 70° ENE 19:46:06 10° N
USA 234 4.1 19:36:55 10° ENE 19:42:10 25° SE 19:47:24 10° S
SeaSat 1 3.7 19:38:52 10° NNE 19:43:35 45° NW 19:48:15 10° WSW
Iridium 4 Rocket 4.5 19:40:47 10° NNE 19:43:51 19° ENE 19:44:57 18° E
ATLAS 2AS CENTAUR R/B 3.1 19:37:07 10° NW 19:44:43 69° SW 19:51:22 11° SSE
STARLINK-1228 2.7 19:42:47 10° WNW 19:45:44 71° SSW 19:47:06 28° SE
STARLINK-1236 3.9 19:41:46 10° WNW 19:45:54 65° NNE 19:48:47 19° E
Cosmos 1943 3.7 19:42:02 10° SW 19:47:40 65° WNW 19:53:22 10° NNE
Ariane Rocket 4.4 19:43:15 10° SSW 19:47:58 39° W 19:52:43 10° NNW
Cosmos 1953 4.3 19:45:37 10° SW 19:49:13 32° WNW 19:52:52 10° N
CZ-4C R/B 4.0 19:44:16 10° NW 19:49:58 31° NNE 19:56:32 10° E
Cosmos 1140 Rocket 3.5 19:47:18 10° S 19:52:21 56° ESE 19:57:25 10° NNE
Cosmos 1726 3.8 19:49:15 10° SW 19:52:45 37° WNW 19:56:15 10° N
Cosmos 2341 Rocket 4.1 19:47:52 10° N 19:54:14 65° ENE 19:59:56 13° SSE
STARLINK-1269 3.8 19:51:44 10° WNW 19:55:53 69° NNE 19:58:20 23° E
Meteor 1-11 4.5 19:52:18 10° NNW 19:58:04 73° W 20:03:43 10° S
Cosmos 1190 Rocket 3.9 19:53:30 10° SSW 19:58:46 72° ESE 20:04:03 10° NNE
Cosmos 2058 Rocket 3.0 19:54:58 10° S 19:59:28 81° E 20:04:00 10° NNE
Spot 2 Rocket 4.0 19:56:54 22° SE 19:59:50 44° ENE 20:04:40 10° N
DMSP B5D2-2 4.0 19:54:52 10° NNE 20:00:06 70° ESE 20:05:19 10° S
CZ-2C R/B 2.5 19:55:37 10° NNE 20:00:45 61° E 20:05:54 10° S
STARLINK-1200 3.7 19:56:43 10° WNW 20:00:51 71° NNE 20:03:07 26° E
Cosmos 1697 Rocket 4.2 19:56:19 10° NNW 20:00:54 24° NE 20:04:03 15° E
COSMOS 2455 2.8 19:54:51 10° NW 20:00:56 90° NE 20:05:11 21° SE
MetOp-A 4.4 19:56:27 10° S 20:01:48 72° WSW 20:07:11 10° NNW
Cosmos 614 Rocket 4.2 19:59:31 10° SSW 20:04:45 76° WNW 20:10:00 10° NNE
STARLINK-1192 3.7 20:01:42 10° WNW 20:05:51 74° NNE 20:07:55 29° E
Cosmos 1726 Rocket 4.3 20:03:07 10° SSW 20:07:28 57° WNW 20:11:53 10° N
IGS 5A 4.4 20:06:53 27° E 20:08:03 32° ENE 20:11:46 10° N
Cosmos 2218 Rocket 4.2 20:02:29 10° N 20:08:33 53° ENE 20:12:18 23° SE
Iridium 2 4.2 20:07:50 33° ESE 20:08:37 37° E 20:12:10 10° NNE
STARLINK-1244 3.6 20:06:40 10° WNW 20:10:50 76° NNE 20:12:41 32° E
ERBS 2.7 20:08:00 10° NW 20:11:20 52° NNE 20:12:22 36° E
Resurs 01 Rocket 1.6 20:08:29 19° SSE 20:11:42 85° W 20:16:08 10° NNW
SL-24 R/B 4.3 20:07:47 10° N 20:11:55 64° WNW 20:15:39 10° SSW
BREEZE-M DEB (TANK) 1.2 20:11:16 10° WSW 20:14:57 77° S 20:15:10 69° ESE
ATLAS CENTAUR R/B 3.2 20:12:10 10° NNW 20:15:02 19° NNE 20:16:45 14° ENE
STARLINK-1138 3.6 20:11:40 10° WNW 20:15:49 79° NNE 20:17:28 35° E
Cosmos 468 Rocket 4.4 20:10:52 10° NNW 20:15:54 48° ENE 20:18:00 30° ESE
Cosmos 921 Rocket 3.4 20:15:00 10° NNW 20:19:07 57° WSW 20:21:45 21° S
STARLINK-1234 3.4 20:16:34 10° WNW 20:19:30 43° SSW 20:19:47 42° SSW
STARLINK-1233 3.1 20:16:29 10° WNW 20:19:35 56° SSW 20:19:56 52° S
STARLINK-1212 3.1 20:16:57 10° WNW 20:20:02 56° SSW 20:20:21 52° S
STARLINK-1105 3.1 20:17:23 10° WNW 20:20:30 55° SSW 20:20:48 52° S
STARLINK-1209 3.5 20:17:43 10° WNW 20:20:36 40° SSW 20:20:51 39° SSW
STARLINK-1143 3.6 20:16:38 10° WNW 20:20:48 82° NNE 20:22:15 40° ESE
STARLINK-1206 3.1 20:17:53 10° WNW 20:20:57 55° SSW 20:21:13 52° S
STARLINK-1247 3.1 20:18:19 10° WNW 20:21:23 54° SSW 20:21:39 52° S
STARLINK-1227 3.1 20:18:44 10° WNW 20:21:49 54° SSW 20:22:06 52° S
STARLINK-1218 3.1 20:19:14 10° WNW 20:22:18 53° SSW 20:22:31 52° S
STARLINK-1226 3.1 20:19:40 10° WNW 20:22:45 53° SSW 20:22:58 52° S
STARLINK-1254 3.1 20:20:06 10° WNW 20:23:11 53° SSW 20:23:24 51° S
STARLINK-1215 3.1 20:20:36 10° WNW 20:23:39 52° SSW 20:23:49 51° SSW
STARLINK-1231 3.1 20:21:02 10° WNW 20:24:05 52° SSW 20:24:15 51° SSW
USA 245 4.4 20:21:27 27° SE 20:24:42 68° ENE 20:31:06 10° N
STARLINK-1232 3.2 20:21:57 10° WNW 20:25:00 51° SSW 20:25:08 51° SSW
SL-8 Rocket 4.0 20:18:39 10° N 20:25:01 79° E 20:29:12 23° SSE
STARLINK-1217 3.2 20:22:23 10° WNW 20:25:27 51° SSW 20:25:33 50° SSW
STARLINK-1241 3.5 20:21:39 10° WNW 20:25:49 86° NNE 20:27:04 44° ESE
STARLINK-1208 3.2 20:22:48 10° WNW 20:25:52 51° SSW 20:26:00 50° SSW
BREEZE-M DEB (TANK) 4.3 20:21:36 10° WNW 20:25:55 29° SW 20:26:31 27° SSW
Cosmos 2181 Rocket 3.9 20:20:34 13° S 20:26:07 66° E 20:32:14 10° NNE
STARLINK-1229 3.2 20:23:17 10° WNW 20:26:20 50° SSW 20:26:25 50° SSW
Cosmos 407 Rocket 4.0 20:21:23 10° SW 20:26:28 61° WNW 20:31:34 10° NNE
STARLINK-1271 3.2 20:23:44 10° WNW 20:26:47 50° SSW 20:26:51 50° SSW
STARLINK-1270 3.3 20:24:12 10° WNW 20:27:15 49° SSW 20:27:17 49° SSW
SL-24 R/B - RUBIN 2 4.4 20:21:37 10° SW 20:27:21 83° NW 20:33:49 10° NE
Cosmos 676 Rocket 3.9 20:22:15 10° SSW 20:27:32 77° ESE 20:32:48 10° NNE
Cosmos 864 Rocket 4.5 20:21:21 10° N 20:27:33 65° ENE 20:30:44 29° SSE
STARLINK-1154 3.3 20:24:38 10° WNW 20:27:41 49° SSW 20:27:43 49° SSW
STARLINK-1197 3.3 20:25:34 10° WNW 20:28:36 48° SSW 20:28:36 48° SSW
Cosmos 1455 4.2 20:30:12 17° NE 20:30:12 17° NE 20:31:36 10° NE
Cosmos 1656 4.1 20:23:12 10° NNW 20:28:45 49° NE 20:30:57 33° ESE
ERS-1 Rocket 3.5 20:27:20 33° ESE 20:28:48 41° ENE 20:33:30 10° N
STARLINK-1189 3.3 20:26:00 10° WNW 20:29:01 48° SSW 20:29:01 48° SSW
Cosmos 1461 4.3 20:25:19 10° NW 20:29:28 36° WSW 20:32:00 20° S
STARLINK-1198 3.4 20:26:27 10° WNW 20:29:27 47° SSW 20:29:27 47° SSW
STARLINK-1188 3.4 20:26:55 10° WNW 20:29:53 47° SW 20:29:53 47° SW
Cosmos 1980 Rocket 3.8 20:25:41 10° NNW 20:30:04 23° NE 20:32:34 17° ENE
STARLINK-1235 3.7 20:27:36 10° WNW 20:30:32 38° SW 20:30:32 38° SW
Cosmos 1812 Rocket 3.7 20:29:45 44° SE 20:30:36 51° E 20:34:50 10° NNE
STARLINK-1239 3.5 20:26:35 10° WNW 20:30:45 89° NNE 20:31:48 50° ESE
STARLINK-1187 3.6 20:28:00 10° WNW 20:30:59 42° SW 20:30:59 42° SW
Cosmos 1892 2.9 20:27:53 10° N 20:31:42 49° ENE 20:32:00 48° E
STARLINK-1199 3.5 20:28:51 10° WNW 20:31:48 46° SW 20:31:48 46° SW
STARLINK-1191 3.5 20:29:19 10° WNW 20:32:15 45° SW 20:32:15 45° SW
STARLINK-29 4.0 20:29:19 10° SW 20:31:19 33° SSW 20:31:19 33° SSW
STARLINK-1210 3.5 20:29:45 10° WNW 20:32:40 45° SW 20:32:40 45° SW
STARLINK-1221 3.5 20:30:13 10° WNW 20:33:07 44° SW 20:33:07 44° SW
MINOTAUR IV R/B 4.4 20:28:47 10° SSW 20:33:16 82° ESE 20:37:48 10° NNE
STARLINK-1219 3.5 20:30:39 10° WNW 20:33:32 44° SW 20:33:32 44° SW
STARLINK-1222 3.6 20:31:07 10° WNW 20:33:58 44° SW 20:33:58 44° SW
STARLINK-1211 3.6 20:31:34 10° WNW 20:34:24 43° SW 20:34:24 43° SW
STARLINK-60 2.9 20:31:24 10° WSW 20:34:41 84° NNW 20:34:55 75° NE
SPOT 5 3.4 20:34:13 33° E 20:34:43 34° ENE 20:38:39 10° N
STARLINK-1214 3.6 20:32:01 10° WNW 20:34:50 43° SW 20:34:50 43° SW
STARLINK-1245 3.6 20:32:31 10° WNW 20:35:16 42° SW 20:35:16 42° SW
STARLINK-1240 3.5 20:31:35 10° WNW 20:35:45 87° SSW 20:36:36 55° ESE
STARLINK-1238 3.7 20:32:55 10° WNW 20:35:43 42° SW 20:35:43 42° SW
STARLINK-1205 3.7 20:33:52 10° WNW 20:36:34 41° SW 20:36:34 41° SW
Cosmos 220 Rocket 3.9 20:32:41 10° NNW 20:37:03 90° ENE 20:38:14 48° SSE
STARLINK-1204 3.7 20:34:19 10° WNW 20:36:59 40° SW 20:36:59 40° SW
Cosmos 2366 rocket 3.9 20:31:44 10° N 20:37:55 78° E 20:41:05 31° SSE
STARLINK-1216 3.5 20:36:35 10° WNW 20:40:44 83° SSW 20:41:24 62° SE
Cosmos 1825 3.6 20:38:24 10° NNE 20:41:04 25° NE 20:41:04 25° NE
Terra 2.7 20:42:27 32° E 20:43:04 33° ENE 20:47:20 10° N
ATLAS 5 CENTAUR R/B 1.9 20:39:16 10° SW 20:43:30 69° NW 20:48:21 10° NE
Abrixas rocket 3.8 20:41:26 10° W 20:43:05 23° WSW 20:43:05 23° WSW
Cosmos 1959 Rocket 4.4 20:38:00 10° N 20:44:22 88° E 20:47:43 30° S
STARLINK-1237 3.5 20:41:33 10° WNW 20:45:42 79° SSW 20:46:09 67° SE
Cosmos 2151 3.5 20:46:00 10° N 20:49:51 43° ENE 20:49:51 43° ENE
Cosmos 2058 2.8 20:45:58 10° NNW 20:50:05 83° W 20:50:47 60° S
Cosmos 1954 Rocket 4.1 20:45:23 10° SSW 20:50:37 75° WNW 20:55:52 10° NNE
STARLINK-1202 3.5 20:46:32 10° WNW 20:50:41 75° SSW 20:50:57 71° S
Cosmos 192 4.3 20:45:44 10° NNW 20:50:43 80° WSW 20:52:10 47° S
RESURS DK-1 2.8 20:49:06 10° NNW 20:53:08 47° NE 20:53:17 46° ENE
SPOT 1/Viking Rocket 3.5 20:52:37 47° SSE 20:54:12 82° ENE 20:59:28 10° NNW
Cosmos 1300 3.8 20:52:16 18° SW 20:54:49 44° WNW 20:58:31 10° N
Cosmos 1741 Rocket 4.1 20:54:58 51° SE 20:55:28 53° ESE 21:00:39 10° NNE
Cosmos 1076 Rocket 3.7 20:53:52 10° NNW 20:58:09 68° W 20:59:02 51° SSW
SL-4 R/B 2.0 20:55:14 10° W 20:58:16 62° NW 20:58:16 62° NW
Cosmos 2208 Rocket 4.2 20:54:52 10° NNW 20:59:59 53° ENE 21:00:47 48° E
STARLINK-1246 3.7 20:56:31 10° WNW 21:00:32 66° SW 21:00:32 66° SW
Cosmos 2082 Rocket 4.2 21:03:59 13° ENE 21:03:59 13° ENE 21:04:57 10° ENE
STARLINK-1203 3.8 20:57:22 10° WNW 21:01:25 62° SW 21:01:25 62° SW
STARLINK-1224 3.8 21:01:29 10° WNW 21:05:18 60° SW 21:05:18 60° SW
Cosmos 1763 Rocket 3.4 21:04:22 10° NNW 21:09:34 81° WSW 21:10:29 60° S
STARLINK-1225 4.0 21:06:30 10° WNW 21:10:06 54° WSW 21:10:06 54° WSW
Cosmos 1833 Rocket 3.9 21:13:43 27° ENE 21:13:43 27° ENE 21:16:49 10° NE
Cosmos 489 Rocket 4.4 21:06:54 10° NNW 21:13:10 82° ENE 21:14:41 54° SE
STARLINK-1230 4.2 21:11:29 10° WNW 21:14:53 49° WSW 21:14:53 49° WSW
BREEZE M DEB (TANK) 3.6 21:12:59 10° WSW 21:17:03 68° SSE 21:30:49 10° ENE
Cosmos 1814 Rocket 4.0 21:13:37 10° NNW 21:18:58 65° ENE 21:19:27 62° E
Cosmos 540 Rocket 3.4 21:13:51 10° NNW 21:19:01 65° ENE 21:19:20 64° E
Cosmos 1821 Rocket 4.0 21:12:54 10° N 21:19:16 69° ENE 21:20:35 55° SE
Cosmos-2242 3.4 21:21:21 53° NE 21:21:21 53° NE 21:24:49 10° NNE
STARLINK-1243 4.4 21:16:28 10° WNW 21:19:39 43° WSW 21:19:39 43° WSW
COSMOS 2406 3.1 21:21:00 63° ESE 21:21:02 63° ESE 21:26:41 10° NE
Meteor 2-10 Rocket 3.4 21:23:20 71° ESE 21:23:27 71° E 21:28:52 10° NNE
Cosmos 1934 Rocket 4.3 21:17:56 10° N 21:23:59 48° ENE 21:24:38 46° E
Iridium 4 Rocket 3.9 21:20:07 10° NNW 21:24:07 43° W 21:24:45 40° WSW
USA 234 3.1 21:19:20 10° ENE 21:25:54 75° SE 21:32:27 10° SW
USA 32 4.0 21:25:20 10° N 21:30:35 75° W 21:31:15 65° SSW
Cosmos 1408 4.0 21:34:03 10° NNW 21:36:38 38° NW 21:36:38 38° NW
CZ-4C R/B 3.0 21:32:50 10° NW 21:39:44 67° NE 21:42:00 47° ESE
Cosmos 2369 3.5 21:34:06 10° NNW 21:39:48 87° ENE 21:40:06 81° SE
Cosmos 1850 Rocket 4.2 21:39:34 51° SW 21:40:45 69° WNW 21:45:57 10° NNE
CARTOSAT-1 4.3 21:43:22 49° W 21:43:22 49° W 21:47:16 10° NNW
ASTEX 1 3.7 21:44:36 59° NE 21:44:36 59° NE 21:48:54 10° N
Cosmos 1697 Rocket 2.5 21:39:52 10° NNW 21:45:35 84° WSW 21:45:47 82° SSW
Cosmos 1356 Rocket 4.2 21:46:43 52° NW 21:46:43 52° NW 21:50:17 10° N
Cosmos 841 Rocket 3.5 21:41:38 10° NNW 21:46:52 71° WSW 21:46:52 71° WSW
Resurs 01 Rocket 4.4 21:47:47 10° W 21:48:53 11° W 21:49:59 10° WNW
Mayak 0.6 21:45:58 10° NNE 21:47:46 24° NNE 21:47:46 24° NNE
Okean 3 Rocket 4.3 21:46:14 10° NNW 21:50:04 50° WNW 21:50:04 50° WNW
ATLAS CENTAUR R/B 2.8 21:50:39 10° NW 21:52:56 33° NW 21:52:56 33° NW
Cosmos 1766 Rocket 4.3 21:51:14 10° NNW 21:54:58 50° WNW 21:54:58 50° WNW
SL-16 R/B 3.4 21:58:34 10° NNW 22:03:39 32° NE 22:04:14 31° ENE
Cosmos 1455 4.1 22:05:04 30° NW 22:05:04 30° NW 22:07:39 10° N
Cosmos 2360 Rocket 4.1 22:02:40 10° N 22:06:44 20° NE 22:08:30 17° ENE
ERS-1 Rocket 4.2 22:07:19 31° WSW 22:07:42 31° W 22:12:11 10° NNW
Meteor 2-3 Rocket 3.7 22:05:27 10° NNW 22:11:01 77° WNW 22:11:01 77° WNW
Cosmos 2322 Rocket 3.4 22:07:02 10° NNW 22:12:04 31° NE 22:12:34 31° NE
SPOT 5 4.2 22:13:27 28° W 22:13:27 28° W 22:16:39 10° NW
Cosmos 1980 Rocket 2.2 22:09:12 10° NNW 22:14:19 75° NNW 22:14:19 75° NNW
Cosmos 1825 4.5 22:13:56 10° NNW 22:15:53 22° WNW 22:15:53 22° WNW
Terra 3.1 22:21:20 34° W 22:21:20 34° W 22:25:10 10° NNW
ATLAS 5 CENTAUR R/B 4.1 22:25:25 10° WNW 22:29:04 23° NNW 22:33:08 10° NE
Thor Agena Rocket 4.2 22:35:47 10° NNE 22:39:38 52° N 22:39:38 52° N
Cosmos 2278 4.5 22:36:26 10° NW 22:40:53 43° W 22:40:53 43° W
Cosmos 2082 Rocket 2.7 22:45:47 56° NNE 22:45:47 56° NNE 22:50:15 10° NNE
Cosmos 1459 Rocket 4.4 22:43:55 10° N 22:49:42 52° ENE 22:49:42 52° ENE
Cosmos 1833 Rocket 3.4 22:55:21 48° WNW 22:55:34 48° NW 23:01:03 10° NNE
Cosmos 2344 4.3 22:46:11 10° NW 22:55:39 75° SW 22:58:33 57° SSE
Cosmos 2221 4.4 22:58:41 30° NNW 22:58:41 30° NNW 23:01:03 10° N
Cosmos 1727 Rocket 4.2 22:58:39 67° NE 22:58:39 67° NE 23:04:11 10° NNE
Cosmos 2219 Rocket 4.2 23:01:07 10° N 23:05:14 20° NE 23:07:20 17° ENE
Cosmos 1802 Rocket 4.4 23:02:32 10° N 23:07:59 56° NE 23:07:59 56° NE
USA 234 3.7 23:02:27 10° ENE 23:08:51 58° NNW 23:15:13 10° W
Cosmos 2100 Rocket 4.2 23:07:30 10° N 23:12:57 69° NNE 23:12:57 69° NNE
Cosmos 2173 Rocket 4.2 23:16:39 10° N 23:21:49 66° N 23:21:49 66° N
Mayak 1.2 23:22:17 10° NNW 23:24:21 18° NW 23:24:21 18° NW
COSMOS 2428 4.5 23:21:45 10° NNW 23:26:26 25° NE 23:28:04 22° ENE
CZ-4C R/B 3.7 23:21:33 10° NW 23:27:10 40° W 23:27:10 40° W
MOS 1-B Rocket 4.2 23:40:53 10° NNE 23:46:30 75° NE 23:46:30 75° NE
SL-16 R/B 3.3 23:42:31 10° NW 23:46:05 37° NW 23:46:05 37° NW
Cosmos 2360 Rocket 2.9 23:46:03 10° NNW 23:50:15 51° NNW 23:50:15 51° NNW
